Location: Ferques
(50.8300°N, 1.7599°E)
Time: 06:39:23
(UTC+00:00)

Cosmos 1315 Rocket - Pass Details

Date: 19 May 2025
Orbit: 498 x 525 km, 81.2° (Epoch: 18 June)

Event Time Altitude Azimuth Distance (km) Brightness Sun altitude
Exits shadow 20:55:04 13° 137° (SE) 1,572 4.5 -9.5°
Maximum altitude 20:57:33 23° 91° (E) 1,151 4.1 -9.8°
Drops below altitude 10° 21:00:39 10° 38° (NE) 1,775 5.6 -10.1°
Sets 21:03:06 0° 24° (NNE) 2,666 6.7 -10.3°
